TimeWEST,TemperatureF,Dew PointF,Humidity,Sea Level PressureIn,VisibilityMPH,Wind Direction,Wind SpeedMPH,Gust SpeedMPH,PrecipitationIn,Events,Conditions,WindDirDegrees,DateUTC
12:00 AM,69.8,55.4,60,30.21,6.2,NE,5.8,-,N/A,,Partly Cloudy,40,2013-06-11 23:00:00
12:30 AM,69.8,55.4,60,30.21,6.2,NE,9.2,-,N/A,,Partly Cloudy,50,2013-06-11 23:30:00
1:00 AM,68,56,55,30.16,6,NE,6.9,,,,,40,2013-06-12 00:00:00
1:00 AM,68.0,55.4,64,30.21,-9999.0,NE,6.9,-,N/A,,Clear,40,2013-06-12 00:00:00
1:30 AM,68.0,55.4,64,30.18,-9999.0,NNE,4.6,-,N/A,,Clear,30,2013-06-12 00:30:00
2:00 AM,68.0,55.4,64,30.18,-9999.0,NNE,5.8,-,N/A,,Clear,20,2013-06-12 01:00:00
2:30 AM,66.2,55.4,68,30.18,-9999.0,Variable,2.3,-,N/A,,Clear,0,2013-06-12 01:30:00
3:00 AM,66.2,55.4,68,30.15,-9999.0,East,3.5,-,N/A,,Clear,90,2013-06-12 02:00:00
3:30 AM,66.2,55.4,68,30.15,-9999.0,East,3.5,-,N/A,,Clear,90,2013-06-12 02:30:00
4:00 AM,65,55,63,30.12,6,ENE,2.3,,,,,70,2013-06-12 03:00:00
4:00 AM,66.2,55.4,68,30.15,-9999.0,ENE,2.3,-,N/A,,Clear,70,2013-06-12 03:00:00
4:30 AM,64.4,53.6,68,30.15,6.2,Variable,2.3,-,N/A,,Unknown,0,2013-06-12 03:30:00
5:00 AM,62.6,55.4,77,30.15,6.2,SW,3.5,-,N/A,,Unknown,230,2013-06-12 04:00:00
5:30 AM,62.6,53.6,72,30.15,6.2,WSW,4.6,-,N/A,,Unknown,240,2013-06-12 04:30:00
6:00 AM,60.8,53.6,77,30.15,-9999.0,WSW,3.5,-,N/A,,Clear,250,2013-06-12 05:00:00
6:30 AM,60.8,53.6,77,30.15,-9999.0,West,2.3,-,N/A,,Clear,270,2013-06-12 05:30:00
7:00 AM,62,54,69,30.13,6,NNE,1.2,,,,,20,2013-06-12 06:00:00
7:00 AM,60.8,55.4,82,30.15,-9999.0,Variable,1.2,-,N/A,,Clear,0,2013-06-12 06:00:00
7:30 AM,64.4,55.4,73,30.15,-9999.0,NNE,3.5,-,N/A,,Clear,20,2013-06-12 06:30:00
8:00 AM,64.4,55.4,73,30.15,-9999.0,Variable,2.3,-,N/A,,Clear,0,2013-06-12 07:00:00
8:30 AM,68.0,55.4,64,30.15,-9999.0,East,3.5,-,N/A,,Clear,80,2013-06-12 07:30:00
9:00 AM,68.0,55.4,64,30.15,-9999.0,Variable,2.3,-,N/A,,Clear,0,2013-06-12 08:00:00
9:30 AM,69.8,55.4,60,30.15,-9999.0,Variable,3.5,-,N/A,,Clear,0,2013-06-12 08:30:00
10:00 AM,71,56,50,30.10,6,NW,2.3,,,,,320,2013-06-12 09:00:00
10:00 AM,71.6,55.4,57,30.15,-9999.0,NNW,3.5,-,N/A,,Clear,340,2013-06-12 09:00:00
10:30 AM,73.4,55.4,53,30.15,-9999.0,North,4.6,-,N/A,,Clear,350,2013-06-12 09:30:00
11:00 AM,75.2,55.4,50,30.15,-9999.0,North,3.5,-,N/A,,Clear,10,2013-06-12 10:00:00
11:30 AM,77.0,55.4,47,30.15,-9999.0,Variable,4.6,-,N/A,,Clear,0,2013-06-12 10:30:00
12:00 PM,80.6,55.4,42,30.15,-9999.0,NNW,5.8,-,N/A,,Clear,330,2013-06-12 11:00:00
12:30 PM,80.6,55.4,42,30.12,-9999.0,Variable,3.5,-,N/A,,Clear,0,2013-06-12 11:30:00
1:00 PM,83,55,27,30.04,6,NNW,3.5,,,,,330,2013-06-12 12:00:00
1:00 PM,82.4,55.4,39,30.12,-9999.0,Variable,2.3,-,N/A,,Clear,0,2013-06-12 12:00:00
1:30 PM,86.0,55.4,35,30.12,-9999.0,Variable,4.6,-,N/A,,Clear,0,2013-06-12 12:30:00
2:00 PM,87.8,55.4,33,30.09,-9999.0,Variable,5.8,-,N/A,,Clear,0,2013-06-12 13:00:00
2:30 PM,89.6,55.4,31,30.09,-9999.0,Variable,5.8,-,N/A,,Clear,0,2013-06-12 13:30:00
3:00 PM,91.4,53.6,28,30.06,-9999.0,NW,6.9,-,N/A,,Clear,320,2013-06-12 14:00:00
3:30 PM,91.4,53.6,28,30.06,-9999.0,Variable,6.9,-,N/A,,Clear,0,2013-06-12 14:30:00
4:00 PM,91,53,18,29.95,6,North,8.1,,,,,0,2013-06-12 15:00:00
4:00 PM,91.4,51.8,26,30.06,-9999.0,North,6.9,-,N/A,,Clear,350,2013-06-12 15:00:00
4:30 PM,93.2,51.8,24,30.06,-9999.0,North,9.2,-,N/A,,Clear,10,2013-06-12 15:30:00
5:00 PM,93.2,51.8,24,30.04,-9999.0,Variable,4.6,-,N/A,,Clear,0,2013-06-12 16:00:00
5:30 PM,93.2,50.0,23,30.04,-9999.0,NE,8.1,-,N/A,,Clear,50,2013-06-12 16:30:00
6:00 PM,93.2,50.0,23,30.04,-9999.0,Variable,4.6,-,N/A,,Clear,0,2013-06-12 17:00:00
6:30 PM,93.2,50.0,23,30.04,-9999.0,ENE,5.8,-,N/A,,Clear,60,2013-06-12 17:30:00
7:00 PM,93,50,14,29.91,6,NE,4.6,,,,,50,2013-06-12 18:00:00
7:00 PM,93.2,48.2,21,30.04,-9999.0,NE,4.6,-,N/A,,Clear,50,2013-06-12 18:00:00
7:30 PM,91.4,48.2,23,30.04,-9999.0,North,9.2,-,N/A,,Clear,10,2013-06-12 18:30:00
8:00 PM,87.8,53.6,31,30.04,-9999.0,North,15.0,-,N/A,,Clear,360,2013-06-12 19:00:00
8:30 PM,84.2,55.4,37,30.04,-9999.0,North,12.7,-,N/A,,Clear,350,2013-06-12 19:30:00
9:00 PM,82.4,55.4,39,30.06,5.0,NNE,11.5,-,N/A,,Unknown,20,2013-06-12 20:00:00
9:30 PM,80.6,55.4,42,30.06,5.0,North,10.4,-,N/A,,Unknown,360,2013-06-12 20:30:00
10:00 PM,78,57,38,30.01,5,NNE,9.2,,,,,30,2013-06-12 21:00:00
10:00 PM,78.8,57.2,47,30.06,5.0,NNE,9.2,-,N/A,,Unknown,30,2013-06-12 21:00:00
10:30 PM,77.0,57.2,50,30.09,-9999.0,NE,8.1,-,N/A,,Clear,50,2013-06-12 21:30:00
11:00 PM,75.2,57.2,53,30.09,-9999.0,NE,6.9,-,N/A,,Clear,50,2013-06-12 22:00:00
11:30 PM,75.2,57.2,53,30.09,-9999.0,Variable,1.2,-,N/A,,Clear,0,2013-06-12 22:30:00